Location: Arthez
(43.0833°N, 0.2500°W)
Time: 23:30:03
(UTC+00:00)

Cosmos 1892 Rocket - Pass Details

Date: 23 October 2021
Orbit: 605 x 634 km, 82.5° (Epoch: 27 November)

Event Time Altitude Azimuth Distance (km) Brightness Sun altitude
Rises 17:39:44 0° 353° (N) 2,928 7.0 -6.9°
Reaches altitude 10° 17:42:00 10° 354° (N) 2,012 6.2 -7.3°
Maximum altitude 17:46:28 78° 81° (E) 641 3.5 -8.2°
Drops below altitude 10° 17:50:51 10° 169° (SSE) 1,978 6.1 -8.9°
Sets 17:53:03 0° 170° (S) 2,874 7.0 -9.3°
